Grants-Milan, NM

6:02 PM MDT on May 25, 2017 (GMT -0600)
Grants-Milan Municipal

Weather History for KGNT - March, 2014

Change the Weather History Date:

Friday, March 28, 2014

  Actual Average Record
Temperature  
Mean Temperature 46 °F -  
Max Temperature 59 °F 58 °F 76 °F (2015)
Min Temperature 32 °F 27 °F 9 °F (1955)
Degree Days  
Heating Degree Days 20    
Moisture  
Dew Point 18 °F    
Average Humidity 38    
Maximum Humidity 68    
Minimum Humidity 15    
Precipitation  
Precipitation 0.00 in - - ()
Sea Level Pressure  
Sea Level Pressure 30.13 in    
Wind  
Wind Speed 10 mph (NW)    
Max Wind Speed 20 mph    
Max Gust Speed 31 mph    
Visibility 10 miles    
Events      
Averages and records for this station are not official NWS values.
T = Trace of Precipitation, MM = Missing Value Source: NWS Daily Summary

Daily Weather History Graph

Daily Weather History Graph

Search for Another Location

Airport or City:

Trip Planner

Search our weather history database for the weather conditions in past years. The results will help you decide how hot, cold, wet, or windy it might be!

Date:

Astronomy

Mar. 28, 2014 Rise Set
Actual Time 7:03 AM MDT 7:29 PM MDT
Civil Twilight 6:38 AM MDT 7:55 PM MDT
Nautical Twilight 6:08 AM MDT 8:25 PM MDT
Astronomical Twilight 5:38 AM MDT 8:55 PM MDT
Moon 5:31 AM MDT (3/28) 5:33 PM MDT (3/28)
Length of Visible Light 13h 16m
Length of Day
12h 26m
Waning Crescent, 6% of the Moon is Illuminated
Mar 28
Waning Crescent
Mar 30
New
Apr 7
First Quarter
Apr 15
Full
Apr 22
Last Quarter

Hourly Weather History & Observations

Time (MDT) Temp. Windchill Dew Point Humidity Pressure Visibility Wind Dir Wind Speed Gust Speed Precip Events Conditions
12:15 AM 37.2 °F 34.7 °F 19.6 °F 49% 30.01 in 10.0 mi WNW 3.5 mph - N/A   Scattered Clouds
12:35 AM 39.4 °F 36.1 °F 21.7 °F 49% 30.01 in 10.0 mi WNW 4.6 mph - N/A   Scattered Clouds
12:55 AM 42.4 °F 36.5 °F 23.7 °F 48% 30.01 in 10.0 mi West 10.4 mph - N/A   Clear
1:15 AM 42.8 °F 38.0 °F 24.4 °F 48% 30.02 in 10.0 mi WNW 8.1 mph - N/A   Scattered Clouds
1:35 AM 42.4 °F 36.1 °F 24.8 °F 50% 30.02 in 10.0 mi WNW 11.5 mph - N/A   Mostly Cloudy
1:55 AM 42.4 °F 36.1 °F 25.2 °F 50% 30.02 in 10.0 mi WNW 11.5 mph - N/A   Overcast
2:15 AM 42.3 °F 35.1 °F 25.5 °F 52% 30.01 in 10.0 mi WNW 13.8 mph 20.7 mph N/A   Overcast
2:35 AM 42.3 °F 34.1 °F 25.5 °F 52% 30.02 in 10.0 mi West 17.3 mph 20.7 mph N/A   Overcast
2:55 AM 40.6 °F 33.8 °F 25.2 °F 54% 30.02 in 10.0 mi WNW 11.5 mph - N/A   Overcast
3:15 AM 38.7 °F 32.4 °F 24.8 °F 58% 30.02 in 10.0 mi NW 9.2 mph - N/A   Scattered Clouds
3:35 AM 38.3 °F 32.5 °F 25.2 °F 59% 30.02 in 10.0 mi NW 8.1 mph - N/A   Clear
3:55 AM 36.9 °F 33.1 °F 25.0 °F 62% 30.02 in 10.0 mi NW 4.6 mph - N/A   Clear
4:15 AM 37.8 °F 30.7 °F 25.3 °F 61% 30.02 in 10.0 mi West 10.4 mph - N/A   Clear
4:35 AM 38.3 °F 30.9 °F 23.9 °F 56% 30.02 in 10.0 mi West 11.5 mph - N/A   Clear
4:55 AM 37.0 °F 28.9 °F 24.4 °F 60% 30.02 in 10.0 mi West 12.7 mph - N/A   Clear
5:15 AM 37.0 °F 29.3 °F 24.4 °F 60% 30.03 in 10.0 mi West 11.5 mph 20.7 mph N/A   Clear
5:35 AM 36.7 °F 28.9 °F 24.6 °F 62% 30.03 in 10.0 mi West 11.5 mph - N/A   Clear
6:15 AM 35.1 °F 30.1 °F 23.7 °F 63% 30.05 in 10.0 mi North 5.8 mph - N/A   Clear
6:35 AM 32.7 °F 25.0 °F 23.4 °F 68% 30.06 in 10.0 mi North 9.2 mph - N/A   Clear
6:55 AM 32.4 °F 26.9 °F 23.0 °F 68% 30.07 in 10.0 mi North 5.8 mph - N/A   Scattered Clouds
7:15 AM 34.5 °F 28.6 °F 23.5 °F 64% 30.08 in 10.0 mi North 6.9 mph - N/A   Clear
7:35 AM 32.7 °F 25.7 °F 23.2 °F 68% 30.10 in 10.0 mi NNW 8.1 mph - N/A   Clear
7:55 AM 34.2 °F 25.7 °F 23.5 °F 65% 30.12 in 10.0 mi North 11.5 mph 16.1 mph N/A   Clear
8:15 AM 36.1 °F 29.9 °F 24.3 °F 62% 30.12 in 10.0 mi North 8.1 mph - N/A   Clear
8:35 AM 37.0 °F 30.4 °F 24.6 °F 61% 30.12 in 10.0 mi North 9.2 mph - N/A   Clear
8:55 AM 38.3 °F 32.5 °F 24.4 °F 57% 30.13 in 10.0 mi North 8.1 mph - N/A   Clear
9:15 AM 42.4 °F 35.3 °F 22.1 °F 44% 30.13 in 10.0 mi NW 13.8 mph 18.4 mph N/A   Clear
9:35 AM 44.6 °F 38.1 °F 21.4 °F 40% 30.14 in 10.0 mi NNW 13.8 mph 19.6 mph N/A   Clear
9:55 AM 44.4 °F 38.2 °F 21.0 °F 39% 30.15 in 10.0 mi NNW 12.7 mph 17.3 mph N/A   Clear
10:15 AM 46.2 °F 41.2 °F 20.3 °F 36% 30.16 in 10.0 mi NNW 10.4 mph 19.6 mph N/A   Clear
10:35 AM 47.5 °F - 19.0 °F 32% 30.16 in 10.0 mi North - - N/A   Clear
10:55 AM 48.6 °F - 19.6 °F 32% 30.17 in 10.0 mi NW 12.7 mph 19.6 mph N/A   Clear
11:15 AM 49.8 °F - 19.6 °F 30% 30.16 in 10.0 mi North 15.0 mph 21.9 mph N/A   Clear
11:35 AM 50.5 °F - 18.1 °F 28% 30.16 in 10.0 mi North 11.5 mph 23.0 mph N/A   Clear
11:55 AM 51.3 °F - 17.1 °F 26% 30.16 in 10.0 mi NNW 15.0 mph 23.0 mph N/A   Clear
12:15 PM 52.3 °F - 15.8 °F 24% 30.16 in 10.0 mi NNW 19.6 mph 25.3 mph N/A   Clear
12:35 PM 52.7 °F - 14.4 °F 22% 30.16 in 10.0 mi NW 18.4 mph 29.9 mph N/A   Clear
12:55 PM 54.0 °F - 14.2 °F 21% 30.16 in 10.0 mi NNW 18.4 mph 26.5 mph N/A   Clear
1:15 PM 54.3 °F - 15.4 °F 22% 30.16 in 10.0 mi NNW 19.6 mph 25.3 mph N/A   Clear
1:35 PM 54.3 °F - 16.0 °F 22% 30.15 in 10.0 mi NNW 17.3 mph 31.1 mph N/A   Clear
1:55 PM 54.7 °F - 16.2 °F 22% 30.14 in 10.0 mi NNW 10.4 mph 26.5 mph N/A   Clear
2:15 PM 55.8 °F - 16.3 °F 21% 30.14 in 10.0 mi NNW 15.0 mph 24.2 mph N/A   Clear
2:35 PM 55.8 °F - 16.3 °F 21% 30.14 in 10.0 mi NNW 19.6 mph 26.5 mph N/A   Clear
2:55 PM 57.9 °F - 16.9 °F 20% 30.14 in 10.0 mi North 13.8 mph 23.0 mph N/A   Clear
3:15 PM 57.7 °F - 15.8 °F 19% 30.14 in 10.0 mi North 13.8 mph 23.0 mph N/A   Clear
3:35 PM 58.3 °F - 13.6 °F 17% 30.14 in 10.0 mi NNW 13.8 mph 25.3 mph N/A   Clear
3:55 PM 59.2 °F - 13.1 °F 16% 30.14 in 10.0 mi WNW 16.1 mph 26.5 mph N/A   Clear
4:15 PM 58.3 °F - 13.8 °F 17% 30.14 in 10.0 mi NNW 12.7 mph 21.9 mph N/A   Clear
4:35 PM 57.9 °F - 14.9 °F 19% 30.14 in 10.0 mi NW 17.3 mph 21.9 mph N/A   Scattered Clouds
4:55 PM 56.3 °F - 14.9 °F 20% 30.14 in 10.0 mi NW 12.7 mph 17.3 mph N/A   Scattered Clouds
5:15 PM 57.9 °F - 14.5 °F 18% 30.14 in 10.0 mi NNW 8.1 mph - N/A   Clear
5:35 PM 57.6 °F - 13.3 °F 17% 30.14 in 10.0 mi North 9.2 mph 23.0 mph N/A   Clear
5:55 PM 57.4 °F - 9.9 °F 15% 30.15 in 10.0 mi NW 10.4 mph 23.0 mph N/A   Clear
6:15 PM 56.1 °F - 8.2 °F 15% 30.15 in 10.0 mi WNW 12.7 mph 23.0 mph N/A   Clear
6:35 PM 54.5 °F - 8.1 °F 16% 30.16 in 10.0 mi NW 15.0 mph 24.2 mph N/A   Clear
6:55 PM 54.0 °F - 7.7 °F 16% 30.17 in 10.0 mi NW 10.4 mph - N/A   Clear
7:15 PM 52.2 °F - 8.4 °F 17% 30.18 in 10.0 mi NW 9.2 mph - N/A   Clear
7:35 PM 49.5 °F - 8.6 °F 19% 30.18 in 10.0 mi NW 9.2 mph - N/A   Clear
7:55 PM 44.8 °F 40.4 °F 8.1 °F 22% 30.20 in 10.0 mi NNW 8.1 mph - N/A   Clear
8:15 PM 41.9 °F 38.2 °F 8.1 °F 25% 30.21 in 10.0 mi NNW 5.8 mph - N/A   Clear
8:35 PM 39.7 °F 37.6 °F 8.1 °F 27% 30.22 in 10.0 mi NW 3.5 mph - N/A   Clear
8:55 PM 36.5 °F - 8.8 °F 32% 30.23 in 10.0 mi Calm Calm - N/A   Clear
9:15 PM 35.6 °F 32.8 °F 8.8 °F 33% 30.24 in 10.0 mi WNW 3.5 mph - N/A   Clear
9:35 PM 38.7 °F 34.3 °F 12.4 °F 34% 30.24 in 10.0 mi West 5.8 mph - N/A   Clear
9:55 PM 38.3 °F - 11.8 °F 34% 30.26 in 10.0 mi Calm Calm - N/A   Clear
10:15 PM 38.5 °F 36.1 °F 11.7 °F 33% 30.26 in 10.0 mi WNW 3.5 mph - N/A   Clear
10:35 PM 37.6 °F 35.1 °F 11.5 °F 34% 30.27 in 10.0 mi NNW 3.5 mph - N/A   Clear
10:55 PM 35.8 °F 33.0 °F 10.8 °F 36% 30.27 in 10.0 mi NW 3.5 mph - N/A   Clear
11:15 PM 34.5 °F 31.6 °F 10.2 °F 37% 30.27 in 10.0 mi NNW 3.5 mph - N/A   Clear
11:35 PM 37.4 °F 34.9 °F 10.9 °F 34% 30.26 in 10.0 mi North 3.5 mph - N/A   Clear